EW0997 Weather Reports


time (UTC)temp
C
wind
direction
speed
KPH
gust
KPH
rain 1hr
cm
rain 24hr
cm
rain mn
cm
humidity
%
barometer
mb
20260507080206 13 33 4.8 12.9 0.00 0.00 0.00 69 1015.6
20260507075706 13 70 4.8 12.9 0.00 0.00 0.00 73 1015.6
20260507075205 13 9 8.0 12.9 0.00 0.00 0.00 72 1015.6
20260507074706 13 70 4.8 9.7 0.00 0.00 0.00 73 1015.6
20260507074206 13 8 4.8 9.7 0.00 0.00 0.00 73 1015.6
20260507073706 13 77 4.8 9.7 0.00 0.00 0.00 74 1015.6
20260507072706 12 13 6.4 12.9 0.00 0.00 0.00 74 1015.5
20260507072205 12 60 3.2 9.7 0.00 0.00 0.00 74 1015.5
20260507071206 12 11 4.8 8.0 0.00 0.00 0.00 75 1015.5
20260507070706 12 70 4.8 9.7 0.00 0.00 0.00 78 1015.5
20260507070206 12 70 3.2 9.7 0.00 0.00 0.00 79 1015.4
20260507065205 11 20 6.4 9.7 0.00 0.00 0.00 78 1015.4
20260507064706 11 10 4.8 12.9 0.00 0.00 0.00 79 1015.3
20260507064206 11 5 6.4 12.9 0.00 0.00 0.00 80 1015.3
20260507062207 10 10 4.8 8.0 0.00 0.00 0.00 86 1015.3
20260507060706 8 345 3.2 4.8 0.00 0.00 0.00 91 1015.2
20260507060205 8 336 3.2 4.8 0.00 0.00 0.00 92 1015.2
20260507055706 8 327 3.2 4.8 0.00 0.00 0.00 92 1015.1
20260507055206 7 346 3.2 4.8 0.00 0.00 0.00 92 1015.1
20260507054705 7 334 1.6 4.8 0.00 0.00 0.00 93 1015.1
20260507054205 7 321 1.6 4.8 0.00 0.00 0.00 93 1015.0
20260507053706 6 321 1.6 3.2 0.00 0.00 0.00 93 1015.0
20260507053205 6 321 0.0 3.2 0.00 0.00 0.00 93 1015.0
20260507052706 6 321 0.0 0.0 0.00 0.00 0.00 93 1015.0
20260507051705 6 321 0.0 0.0 0.00 0.00 0.00 94 1014.9
20260507051206 5 321 0.0 0.0 0.00 0.00 0.00 94 1014.8
20260507050205 5 321 1.6 4.8 0.00 0.00 0.00 93 1014.8
20260507045705 5 321 1.6 3.2 0.00 0.00 0.00 93 1014.7
20260507045205 5 321 1.6 3.2 0.00 0.00 0.00 93 1014.6
20260507044706 5 321 1.6 4.8 0.00 0.00 0.00 93 1014.6
20260507044206 5 321 3.2 4.8 0.00 0.00 0.00 93 1014.5
20260507043706 5 321 3.2 4.8 0.00 0.00 0.00 93 1014.5
20260507043206 5 321 1.6 3.2 0.00 0.00 0.00 93 1014.5
20260507042705 5 321 1.6 3.2 0.00 0.00 0.00 93 1014.4
20260507042206 5 321 0.0 3.2 0.00 0.00 0.00 93 1014.4
20260507041705 5 321 1.6 3.2 0.00 0.00 0.00 93 1014.4
20260507041205 5 321 1.6 3.2 0.00 0.00 0.00 93 1014.3
20260507040706 5 321 1.6 3.2 0.00 0.00 0.00 93 1014.3
20260507040205 5 321 1.6 3.2 0.00 0.00 0.00 92 1014.2
20260507035206 5 321 1.6 4.8 0.00 0.00 0.00 92 1014.2
20260507034206 5 321 1.6 3.2 0.00 0.00 0.00 92 1014.2
20260507033705 5 321 3.2 4.8 0.00 0.00 0.00 92 1014.1
20260507033205 5 321 3.2 4.8 0.00 0.00 0.00 92 1014.2
20260507032205 5 321 0.0 3.2 0.00 0.00 0.00 92 1014.1
20260507031206 5 321 0.0 0.0 0.00 0.00 0.00 92 1014.0
20260507030705 5 321 0.0 0.0 0.00 0.00 0.00 92 1014.0
20260507030205 5 321 0.0 0.0 0.00 0.00 0.00 92 1014.0
20260507025705 5 321 0.0 0.0 0.00 0.00 0.00 92 1014.0
20260507025205 5 321 0.0 3.2 0.00 0.00 0.00 92 1014.0
20260507024705 5 321 1.6 3.2 0.00 0.00 0.00 92 1013.9
20260507024205 5 321 1.6 4.8 0.00 0.00 0.00 92 1014.0
20260507023707 5 321 3.2 4.8 0.00 0.00 0.00 91 1014.0
20260507022205 5 321 3.2 4.8 0.00 0.00 0.00 91 1013.9
20260507021707 5 330 0.0 0.0 0.00 0.00 0.00 91 1013.8
20260507021205 5 342 0.0 0.0 0.00 0.00 0.00 91 1013.8
20260507020706 6 342 0.0 0.0 0.00 0.00 0.00 90 1013.8
20260507020205 6 342 0.0 0.0 0.00 0.00 0.00 91 1013.7
20260507015705 6 342 0.0 0.0 0.00 0.00 0.00 91 1013.6
20260507015205 6 342 0.0 0.0 0.00 0.00 0.00 90 1013.6
20260507014706 6 342 0.0 0.0 0.00 0.00 0.00 90 1013.6
20260507014205 6 342 0.0 1.6 0.00 0.00 0.00 90 1013.6
20260507013706 6 342 0.0 3.2 0.00 0.00 0.00 90 1013.6
20260507013206 6 342 0.0 0.0 0.00 0.00 0.00 90 1013.5
20260507012705 6 342 0.0 1.6 0.00 0.00 0.00 90 1013.5
20260507012205 7 342 1.6 3.2 0.00 0.00 0.00 89 1013.5
20260507011705 7 0 1.6 3.2 0.00 0.00 0.00 89 1013.5
20260507010205 7 15 3.2 4.8 0.00 0.00 0.00 89 1013.4
20260507005705 7 18 3.2 4.8 0.00 0.00 0.00 89 1013.4
20260507005205 7 21 3.2 4.8 0.00 0.00 0.00 89 1013.4
20260507004205 7 22 4.8 8.0 0.00 0.00 0.00 88 1013.4
20260507003706 7 10 4.8 8.0 0.00 0.00 0.00 89 1013.4
20260507003205 7 12 4.8 8.0 0.00 0.00 0.00 88 1013.3
20260507002705 7 5 3.2 8.0 0.00 0.00 0.00 88 1013.2
20260507002205 8 9 4.8 8.0 0.00 0.00 0.00 88 1013.3
20260507001705 8 351 3.2 8.0 0.00 0.00 0.00 88 1013.2
20260507001205 8 8 3.2 4.8 0.00 0.00 0.00 88 1013.2
20260507000706 8 15 4.8 8.0 0.00 0.00 0.00 88 1013.2
20260507000205 8 12 4.8 12.9 0.00 0.00 0.00 87 1013.2
20260506235206 8 15 6.4 12.9 0.00 0.00 0.00 87 1013.2
20260506234705 8 11 8.0 12.9 0.00 0.00 0.00 87 1013.2
20260506234205 8 12 4.8 14.5 0.00 0.00 0.00 87 1013.2
20260506233705 8 3 8.0 12.9 0.00 0.00 0.00 86 1013.1
20260506233205 8 13 4.8 12.9 0.00 0.00 0.00 86 1013.1
20260506232705 8 14 4.8 9.7 0.00 0.00 0.00 86 1013.1
20260506232205 8 9 6.4 12.9 0.00 0.00 0.00 86 1013.1
20260506231705 8 19 8.0 11.3 0.00 0.00 0.00 85 1013.1
20260506230705 8 7 6.4 14.5 0.00 0.00 0.00 85 1013.0
20260506230205 9 7 8.0 14.5 0.00 0.00 0.00 84 1013.0
20260506225704 9 7 8.0 14.5 0.00 0.00 0.00 84 1013.0
20260506224705 9 15 8.0 16.1 0.00 0.00 0.00 83 1013.0
20260506223204 10 7 8.0 19.3 0.00 0.00 0.00 81 1012.9
20260506222705 10 14 9.7 19.3 0.00 0.00 0.00 81 1012.9
20260506221705 10 15 9.7 19.3 0.00 0.00 0.00 80 1012.9
20260506221205 10 12 8.0 16.1 0.00 0.00 0.00 79 1012.8
20260506220205 10 9 8.0 16.1 0.00 0.00 0.00 78 1012.8
20260506215205 10 27 8.0 14.5 0.00 0.00 0.00 76 1012.7
20260506214704 11 10 9.7 14.5 0.00 0.00 0.00 75 1012.6
20260506213704 11 23 8.0 16.1 0.00 0.00 0.00 75 1012.5
20260506213205 11 14 8.0 16.1 0.00 0.00 0.00 74 1012.5
20260506212706 11 15 9.7 19.3 0.00 0.00 0.00 74 1012.5
20260506212205 11 15 4.8 16.1 0.00 0.00 0.00 74 1012.5
20260506211704 11 358 8.0 16.1 0.00 0.00 0.00 74 1012.4
20260506211205 11 9 8.0 16.1 0.00 0.00 0.00 73 1012.4
20260506210204 11 9 9.7 16.1 0.00 0.00 0.00 72 1012.3
20260506205704 11 13 11.3 20.9 0.00 0.00 0.00 72 1012.3
20260506205204 11 13 9.7 16.1 0.00 0.00 0.00 72 1012.2
20260506204704 11 16 8.0 19.3 0.00 0.00 0.00 72 1012.2
20260506204205 11 16 8.0 19.3 0.00 0.00 0.00 72 1012.1
20260506203704 11 9 8.0 19.3 0.00 0.00 0.00 71 1012.1
20260506203204 11 24 9.7 14.5 0.00 0.00 0.00 71 1012.1
20260506202704 11 13 4.8 19.3 0.00 0.00 0.00 70 1012.1
20260506202205 11 23 8.0 14.5 0.00 0.00 0.00 70 1012.1
20260506201205 12 11 8.0 19.3 0.00 0.00 0.00 70 1011.9
20260506200706 12 18 9.7 16.1 0.00 0.00 0.00 71 1011.9
20260506200205 12 20 9.7 16.1 0.00 0.00 0.00 71 1011.9
20260506195705 12 17 6.4 16.1 0.00 0.00 0.00 70 1011.9
20260506195204 12 12 8.0 16.1 0.00 0.00 0.00 71 1011.8
20260506194705 12 19 4.8 19.3 0.00 0.00 0.00 71 1011.7
20260506194205 12 18 8.0 14.5 0.00 0.00 0.00 72 1011.7
20260506193205 12 30 8.0 12.9 0.00 0.00 0.00 73 1011.5
20260506192704 12 19 4.8 11.3 0.00 0.00 0.00 75 1011.5
20260506192204 12 16 3.2 8.0 0.00 0.00 0.00 75 1011.5
20260506191705 12 66 9.7 19.3 0.00 0.00 0.00 77 1011.5
20260506190705 12 74 4.8 11.3 0.00 0.00 0.00 75 1011.3
20260506190205 12 48 4.8 20.9 0.00 0.00 0.00 74 1011.3
20260506185705 12 69 6.4 20.9 0.00 0.00 0.00 71 1011.1
20260506185205 12 31 8.0 14.5 0.00 0.00 0.00 71 1011.1
20260506184704 12 25 4.8 14.5 0.00 0.00 0.00 71 1011.0
20260506184204 12 13 4.8 12.9 0.00 0.00 0.00 70 1010.9
20260506183206 12 12 3.2 8.0 0.00 0.00 0.00 71 1010.8
20260506182704 12 7 4.8 9.7 0.00 0.00 0.00 69 1010.8
20260506182204 12 19 3.2 8.0 0.00 0.00 0.00 70 1010.8
20260506181704 12 14 6.4 12.9 0.00 0.00 0.00 69 1010.7
20260506180204 12 55 9.7 19.3 0.00 0.00 0.00 67 1010.6
20260506175705 12 17 8.0 16.1 0.00 0.00 0.00 68 1010.6
20260506175204 12 23 8.0 16.1 0.00 0.00 0.00 67 1010.5
20260506174704 12 15 6.4 12.9 0.00 0.00 0.00 66 1010.4
20260506174204 13 22 9.7 14.5 0.00 0.00 0.00 65 1010.2
20260506173705 13 14 4.8 12.9 0.00 0.00 0.00 67 1010.2
20260506173204 13 22 6.4 16.1 0.00 0.00 0.00 65 1010.1
20260506172704 13 30 4.8 16.1 0.00 0.00 0.00 65 1010.1
20260506172204 13 10 4.8 12.9 0.00 0.00 0.00 65 1010.0
20260506171204 13 70 8.0 14.5 0.00 0.00 0.00 66 1009.9
20260506170704 13 47 4.8 11.3 0.00 0.00 0.00 65 1009.9
20260506170204 13 60 4.8 12.9 0.00 0.00 0.00 63 1009.9
20260506165704 13 24 4.8 19.3 0.00 0.00 0.00 65 1009.9
20260506165204 13 73 4.8 11.3 0.00 0.00 0.00 65 1009.9
20260506164204 13 136 3.2 8.0 0.00 0.00 0.00 63 1009.8
20260506163704 13 121 1.6 4.8 0.00 0.00 0.00 66 1009.9
20260506163204 13 121 1.6 4.8 0.00 0.00 0.00 64 1009.8
20260506162704 13 99 4.8 9.7 0.00 0.00 0.00 64 1009.8
20260506161704 13 102 1.6 8.0 0.00 0.00 0.00 65 1009.8
20260506161204 13 101 4.8 9.7 0.00 0.00 0.00 62 1009.7
20260506160205 13 100 3.2 9.7 0.00 0.00 0.00 60 1009.8
20260506155704 13 103 1.6 8.0 0.00 0.00 0.00 61 1009.8
20260506155204 13 77 1.6 12.9 0.00 0.00 0.00 62 1009.8
20260506154703 13 65 1.6 11.3 0.00 0.00 0.00 62 1009.8
20260506154204 13 134 3.2 8.0 0.00 0.00 0.00 60 1009.8
20260506153704 13 95 4.8 9.7 0.00 0.00 0.00 62 1009.8
20260506153206 13 110 8.0 14.5 0.00 0.00 0.00 61 1009.8
20260506152707 13 77 3.2 12.9 0.00 0.00 0.00 60 1009.8
20260506152206 13 61 3.2 12.9 0.00 0.00 0.00 60 1009.7
20260506151706 13 99 4.8 11.3 0.00 0.00 0.00 58 1009.7
20260506151206 13 109 3.2 9.7 0.00 0.00 0.00 61 1009.7
20260506150706 13 66 3.2 12.9 0.00 0.00 0.00 63 1009.6
20260506150206 13 111 4.8 12.9 0.00 0.00 0.00 63 1009.6
20260506145706 13 109 6.4 12.9 0.00 0.00 0.00 60 1009.6
20260506145206 13 87 3.2 14.5 0.00 0.00 0.00 60 1009.6
20260506144206 13 122 8.0 14.5 0.00 0.00 0.00 61 1009.7
20260506143706 13 115 9.7 19.3 0.00 0.00 0.00 61 1009.7
20260506142706 13 120 4.8 12.9 0.00 0.00 0.00 62 1009.6
20260506142206 13 111 3.2 12.9 0.00 0.00 0.00 62 1009.6
20260506141706 13 94 4.8 16.1 0.00 0.00 0.00 60 1009.6
20260506140706 15 40 8.0 22.5 0.00 0.00 0.00 54 1009.6
20260506140206 15 49 9.7 20.9 0.00 0.00 0.00 51 1009.6
20260506135706 15 18 8.0 22.5 0.00 0.00 0.00 49 1009.6
20260506135206 15 51 6.4 22.5 0.00 0.00 0.00 57 1009.6
20260506133206 13 87 4.8 14.5 0.00 0.00 0.00 59 1009.5
20260506132705 13 96 3.2 16.1 0.00 0.00 0.00 60 1009.5
20260506132206 13 69 8.0 16.1 0.00 0.00 0.00 59 1009.5
20260506131706 13 95 4.8 11.3 0.00 0.00 0.00 60 1009.4
20260506131206 13 100 3.2 11.3 0.00 0.00 0.00 59 1009.5
20260506130706 14 78 9.7 16.1 0.00 0.00 0.00 60 1009.4
20260506130206 14 46 9.7 14.5 0.00 0.00 0.00 58 1009.3
20260506125706 14 62 8.0 19.3 0.00 0.00 0.00 55 1009.3
20260506125206 14 60 9.7 19.3 0.00 0.00 0.00 58 1009.3
20260506124706 15 30 16.1 24.1 0.00 0.00 0.00 53 1009.2
20260506124206 15 35 4.8 16.1 0.00 0.00 0.00 58 1009.3
20260506123706 15 62 9.7 20.9 0.00 0.00 0.00 59 1009.2
20260506123206 15 64 9.7 16.1 0.00 0.00 0.00 58 1009.2
20260506122706 15 70 11.3 19.3 0.00 0.00 0.00 62 1009.2
20260506122208 15 46 9.7 19.3 0.00 0.00 0.00 62 1009.2
20260506121706 15 32 9.7 19.3 0.00 0.00 0.00 58 1009.1
20260506121206 15 44 9.7 19.3 0.00 0.00 0.00 59 1009.2
20260506120706 16 15 17.7 29.0 0.00 0.00 0.00 55 1009.2
20260506120206 16 35 8.0 22.5 0.00 0.00 0.00 58 1009.1
20260506115705 16 55 9.7 22.5 0.00 0.00 0.00 58 1009.1
20260506115205 15 64 9.7 19.3 0.00 0.00 0.00 59 1009.1
20260506114705 15 59 9.7 25.7 0.00 0.00 0.00 59 1009.1
20260506114206 15 17 12.9 22.5 0.00 0.00 0.00 62 1009.1
20260506113706 14 11 11.3 22.5 0.00 0.00 0.00 59 1009.1
20260506112706 15 72 9.7 20.9 0.00 0.00 0.00 63 1009.1
20260506112206 15 31 9.7 22.5 0.00 0.00 0.00 62 1009.1
20260506111706 15 61 11.3 27.4 0.00 0.00 0.00 61 1009.1
20260506111206 15 16 9.7 19.3 0.00 0.00 0.00 64 1009.1
20260506105705 15 52 12.9 24.1 0.00 0.00 0.00 65 1009.1
20260506105206 15 69 9.7 24.1 0.00 0.00 0.00 64 1009.1
20260506104705 15 71 11.3 25.7 0.00 0.00 0.00 62 1009.0
20260506104205 15 32 11.3 22.5 0.00 0.00 0.00 62 1009.1
20260506103706 15 62 12.9 22.5 0.00 0.00 0.00 68 1009.0
20260506103205 15 28 11.3 19.3 0.00 0.00 0.00 69 1009.1
20260506102706 14 13 11.3 22.5 0.00 0.00 0.00 67 1009.1
20260506102206 14 62 9.7 20.9 0.00 0.00 0.00 70 1009.0
20260506100206 13 55 9.7 19.3 0.00 0.00 0.00 74 1008.9
20260506095706 13 20 6.4 20.9 0.00 0.00 0.00 74 1008.9
20260506095205 13 7 11.3 20.9 0.00 0.00 0.00 73 1008.9
20260506094706 14 56 14.5 24.1 0.00 0.00 0.00 74 1008.9
20260506094206 13 47 14.5 20.9 0.00 0.00 0.00 76 1008.8
20260506093706 13 15 11.3 24.1 0.00 0.00 0.00 76 1008.8
20260506093206 13 57 11.3 20.9 0.00 0.00 0.00 77 1008.9
20260506092705 13 54 11.3 22.5 0.00 0.00 0.00 75 1008.8
20260506092205 13 31 11.3 20.9 0.00 0.00 0.00 73 1008.8
20260506091705 14 12 8.0 22.5 0.00 0.00 0.00 72 1008.6
20260506090705 15 71 11.3 20.9 0.00 0.00 0.00 71 1008.7
20260506090205 15 76 14.5 24.1 0.00 0.00 0.00 71 1008.7
20260506085706 15 54 16.1 27.4 0.00 0.00 0.00 69 1008.7
20260506084205 14 19 14.5 29.0 0.00 0.00 0.00 70 1008.5
20260506083706 14 14 14.5 25.7 0.00 0.00 0.00 71 1008.5
20260506083206 14 64 14.5 24.1 0.00 0.00 0.00 73 1008.5
20260506082705 13 59 9.7 19.3 0.00 0.00 0.00 76 1008.4
20260506082205 13 3 9.7 20.9 0.00 0.00 0.00 78 1008.4
20260506081706 13 23 8.0 16.1 0.00 0.00 0.00 79 1008.4
20260506081205 13 32 12.9 19.3 0.00 0.00 0.00 77 1008.4
20260506080705 13 19 8.0 16.1 0.00 0.00 0.00 78 1008.4